[[[{"header":{"parameterUnit":"kt","parameterCategory":2,"dx":1,"dy":1,"la1":30.253999710083008,"la2":30.299108505249023,"lo1":-89.0895004272461,"lo2":-89.04439544677734,"nx":28,"ny":28,"refTime":"2022-09-21T21:00:00:Z","depth":0,"parameterNumber":1,"parameterNumberName":"U-component_of_WINDS"},"data":[-3.054,-3.0601,-3.0564,-3.0617,-3.0593,-3.0624,-3.0624,-3.0619,-3.0607,-3.0641,-3.0654,-3.0624,-3.0599,-3.0608,-3.0622,-3.0609,-3.062,-3.0668,-3.0646,-3.046,-3.0432,-3.0406,-3.039,-3.0669,-3.067,-3.0844,-3.0846,-3.0847,-3.0408,-3.0385,-3.0401,-3.0393,-3.0407,-3.0338,-3.0327,-3.0344,-3.0374,-3.0359,-3.037,-3.0397,-3.0415,-3.0372,-3.0384,-3.0414,-3.0385,-3.0421,-3.0421,-3.0419,-3.0218,-3.0201,-3.0444,-3.0444,-3.0444,-3.0444,-3.0444,-3.0444,-3.0159,-3.0197,-3.0169,-3.0187,-3.0172,-3.0168,-3.0198,-3.0159,-3.0176,-3.0182,-3.0135,-3.0169,-3.0148,-3.0144,-3.0135,-3.0162,-3.0116,-3.0145,-3.0153,-3.0163,-3.018,-2.9939,-3.0161,-3.016,-3.0159,-3.0159,-3.0158,0,-2.9966,-2.9933,-2.9946,-2.9948,-2.9959,-2.9958,-2.9951,-2.9968,-2.9886,-2.9904,-2.9927,-2.9934,-2.9949,-2.9969,-2.9971,-2.9955,-2.989,-2.9878,-2.9898,-2.9925,-2.9948,-2.9941,-2.962,-2.9873,-2.987,-2.9868,-2.9867,-2.9866,-2.9717,-2.9763,-2.9717,-2.9731,-2.9717,-2.9742,-2.9749,-2.9672,-2.9684,-2.9665,-2.9703,-2.9719,-2.973,-2.9774,-2.9732,-2.9745,-2.9714,-2.9815,-2.9716,-2.9738,-2.9721,-2.9721,-2.9727,-2.9838,-2.9842,-2.9845,-2.9847,0,-2.958,-2.9518,-2.9579,-2.9528,-2.9517,-2.9571,-2.9528,-2.9563,-2.9522,-2.9565,-2.957,-2.9508,-2.9532,-2.9472,-2.9489,-2.9458,-2.9551,-2.9518,-2.9558,-2.955,-2.9638,-2.9633,-2.9925,-2.9961,-2.9665,-2.9668,-2.967,0,-2.9345,-2.941,-2.9315,-2.9354,-2.9423,-2.9343,-2.9415,-2.9387,-2.9366,-2.9399,-2.9312,-2.9345,-2.9262,-2.9287,-2.9241,-2.9306,-2.9308,-2.9289,-2.9277,-2.93,-2.9303,-2.931,-2.9299,-2.9242,-2.9241,-2.9239,-2.9238,0,-2.9142,-2.9165,-2.9227,-2.9223,-2.9176,-2.9207,-2.9189,-2.9164,-2.9173,-2.9174,-2.9179,-2.9186,-2.9192,-2.9199,-2.914,-2.9076,-2.9216,-2.9115,-2.9198,-2.9201,-2.9237,-2.9237,-2.9506,-2.9236,-2.9236,-2.9236,-2.9235,0,-2.8945,-2.8944,-2.9042,-2.9001,-2.901,-2.9051,-2.9052,-2.9072,-2.9053,-2.9026,-2.9026,-2.8962,-2.901,-2.8915,-2.8982,-2.8915,-2.8926,-2.8911,-2.8916,-2.8921,-2.8818,-2.8983,-2.9241,-2.9268,-2.892,-2.8918,-2.8915,0,-2.8731,-2.8812,-2.8744,-2.8839,-2.8868,-2.8768,-2.8812,-2.8797,-2.8763,-2.8785,-2.8748,-2.8774,-2.8689,-2.869,-2.873,-2.8695,-2.8782,-2.868,-2.872,-2.8722,-2.8732,-2.8967,-2.9023,-2.919,-2.8881,-2.8884,-2.8887,0,-2.8559,-2.8498,-2.852,-2.8513,-2.8478,-2.8502,-2.8552,-2.8558,-2.8577,-2.8568,-2.8611,-2.8643,-2.8582,-2.8583,-2.8532,-2.8578,-2.8721,-2.8507,-2.8505,-2.8551,-2.8857,-2.891,-2.8938,-2.8677,-2.8681,-2.8684,-2.8859,0,-2.8281,-2.8313,-2.8367,-2.8352,-2.836,-2.8415,-2.8349,-2.8366,-2.8316,-2.8279,-2.8338,-2.8311,-2.8321,-2.8335,-2.8286,-2.8408,-2.8379,-2.8314,-2.8221,-2.8374,-2.8431,-2.8453,-2.8142,-2.8139,-2.8136,-2.8134,0,0,-2.8095,-2.8138,-2.8062,-2.8107,-2.8109,-2.8005,-2.807,-2.8061,-2.8046,-2.8051,-2.7997,-2.8041,-2.8022,-2.8102,-2.8144,-2.8146,-2.8164,-2.8113,-2.83,-2.8319,-2.8337,-2.8398,-2.8423,-2.8129,-2.8128,-2.8127,-2.8126,0,-2.7981,-2.7958,-2.8021,-2.8008,-2.7984,-2.7942,-2.7957,-2.7917,-2.7897,-2.7952,-2.7869,-2.7897,-2.7933,-2.7925,-2.7926,-2.81,-2.8038,-2.8107,-2.8223,-2.8276,-2.8298,-2.8318,-2.8383,-2.8407,-2.812,-2.812,-2.812,0,-2.7802,-2.777,-2.7793,-2.7792,-2.7776,-2.7809,-2.7692,-2.7731,-2.7755,-2.7643,-2.7701,-2.7677,-2.766,-2.7742,-2.7777,-2.773,-2.7928,-2.7852,-2.7867,-2.7871,-2.7919,-2.7946,-2.797,-2.7655,-2.7654,-2.7653,0,0,-2.7713,-2.7741,-2.7684,-2.7762,-2.7758,-2.7696,-2.7706,-2.7657,-2.7642,-2.7636,-2.7606,-2.7595,-2.7616,-2.7632,-2.7648,-2.7746,-2.7739,-2.7798,-2.782,-2.7838,-2.7852,-2.7905,-2.7931,-2.7648,-2.7647,-2.7647,0,0,-2.7671,-2.7608,-2.7559,-2.7641,-2.7628,-2.7579,-2.7631,-2.757,-2.7577,-2.7564,-2.7485,-2.7479,-2.7554,-2.7535,-2.7474,-2.7614,-2.7522,-2.7535,-2.7624,-2.7651,-2.7673,-2.7678,-2.7355,0,0,0,0,0,-2.7521,-2.7615,-2.7571,-2.7575,-2.7573,-2.7603,-2.7603,-2.7538,-2.7474,-2.7516,-2.7481,-2.7412,-2.7486,-2.7429,-2.7436,-2.7507,-2.7581,-2.7593,-2.7604,-2.7742,-2.777,-2.7794,0,0,0,0,0,0,-2.7522,-2.7527,-2.7568,-2.7524,-2.7523,-2.7599,-2.7477,-2.7462,-2.7468,-2.7454,-2.7421,-2.7411,-2.7358,-2.7422,-2.7429,-2.7497,-2.7352,-2.7586,-2.7596,-2.7605,-2.7751,-2.7775,-2.7795,0,0,0,0,0,-2.7522,-2.7526,-2.754,-2.7522,-2.7522,-2.7458,-2.7473,-2.7459,-2.7463,-2.7409,-2.7396,-2.7414,-2.7362,-2.7363,-2.7426,-2.7496,-2.7347,-2.735,-2.7593,-2.76,-2.7607,-2.7763,0,0,0,0,0,0,-2.7522,-2.7515,-2.7539,-2.7536,-2.7482,-2.7452,-2.7445,-2.7458,-2.7416,-2.7405,-2.7397,-2.7387,-2.7365,-2.7366,-2.7367,-2.7499,-2.7343,-2.7346,-2.7347,-2.7599,-2.7605,-2.761,0,0,0,0,0,0,-2.7512,-2.7513,-2.7537,-2.749,-2.7481,-2.7448,-2.7442,-2.7486,-2.7417,-2.7407,-2.7396,-2.7393,-2.7364,-2.7368,-2.7369,-2.744,-2.734,-2.7342,-2.7344,-2.7345,-2.7604,-2.7608,0,0,0,0,0,0,-2.7511,-2.7512,-2.749,-2.7483,-2.7475,-2.7442,-2.7485,-2.7489,-2.7374,-2.741,-2.7362,-2.7356,-2.7369,-2.7368,-2.7371,-2.7442,-2.7441,-2.734,-2.7342,-2.7343,-2.7344,0,0,0,0,0,0,0,-2.7511,-2.7519,-2.7554,-2.7478,-2.7471,-2.7512,-2.7512,-2.7511,-2.7373,-2.7368,-2.7363,-2.7359,-2.7325,-2.7328,-2.733,-2.7444,0,0,-2.734,-2.7341,0,0,0,0,0,0,0,0,-2.7518,-2.7519,-2.7554,-2.7553,-2.7553,-2.7512,-2.7512,-2.7511,-2.7372,-2.7368,-2.7364,-2.736,-2.7325,-2.7328,-2.733,0,0,0,0,0,0,0,0,0,0,0,0,0,0,0,-2.7554,-2.7553,0,-2.7512,-2.7512,-2.7511,-2.7371,-2.7368,-2.7365,-2.7362,-2.7326,-2.7328,-2.733,0,0,0,0,0,0,0,0,0,0,0,0,0,0,0,0,0,0,0,0,0,0,0,0,0,0,0,0,0,0,0,0,0,0,0,0,0,0,0,0,0,0,0,0,0,0,0,0,0,0,0,0,0,0,0,0,0,0,0,0,0,0,0,0,0,0,0,0,0]}],[{"header":{"parameterUnit":"kt","parameterCategory":2,"dx":1,"dy":1,"la1":30.253999710083008,"la2":30.299108505249023,"lo1":-89.0895004272461,"lo2":-89.04439544677734,"nx":28,"ny":28,"refTime":"2022-09-21T21:00:00:Z","depth":0,"parameterNumber":2,"parameterNumberName":"V-component_of_WINDS"},"data":[-3.251,-3.2581,-3.2616,-3.2714,-3.2762,-3.2835,-3.2872,-3.2923,-3.2972,-3.3062,-3.312,-3.3161,-3.3222,-3.3299,-3.3363,-3.3379,-3.3405,-3.3406,-3.3426,-3.3388,-3.3386,-3.3383,-3.3369,-3.3411,-3.3411,-3.3461,-3.3462,-3.3462,-3.2483,-3.2532,-3.2593,-3.2676,-3.2729,-3.2749,-3.2815,-3.2859,-3.2922,-3.2983,-3.3041,-3.3122,-3.319,-3.3252,-3.3323,-3.3357,-3.3371,-3.3374,-3.3374,-3.3383,-3.3344,-3.3329,-3.3363,-3.3363,-3.3363,-3.3363,-3.3363,-3.3363,-3.2445,-3.2487,-3.2557,-3.2624,-3.2674,-3.2729,-3.2774,-3.2823,-3.2883,-3.2961,-3.2989,-3.3061,-3.3127,-3.3228,-3.3269,-3.3327,-3.3329,-3.3343,-3.3347,-3.3351,-3.3351,-3.3279,-3.334,-3.334,-3.334,-3.334,-3.334,0,-3.2429,-3.2455,-3.2515,-3.2586,-3.2636,-3.2694,-3.2752,-3.2781,-3.2845,-3.2891,-3.2961,-3.3006,-3.3096,-3.3165,-3.3238,-3.3278,-3.3303,-3.3308,-3.3318,-3.3308,-3.329,-3.3304,-3.3241,-3.3306,-3.3306,-3.3306,-3.3306,-3.3305,-3.2395,-3.2437,-3.2526,-3.2564,-3.2604,-3.2664,-3.2706,-3.276,-3.2802,-3.2881,-3.2914,-3.2983,-3.3041,-3.3145,-3.3201,-3.3267,-3.328,-3.3302,-3.329,-3.3279,-3.3284,-3.3282,-3.3288,-3.3304,-3.3304,-3.3304,-3.3304,0,-3.2373,-3.2428,-3.2505,-3.2588,-3.261,-3.2652,-3.2722,-3.2764,-3.2807,-3.2871,-3.2889,-3.2955,-3.3021,-3.3074,-3.3158,-3.3184,-3.3255,-3.3264,-3.3234,-3.324,-3.3267,-3.3264,-3.334,-3.3354,-3.3308,-3.3308,-3.3309,0,-3.2367,-3.242,-3.2499,-3.254,-3.2602,-3.2654,-3.2713,-3.2755,-3.2813,-3.2863,-3.2899,-3.2946,-3.3005,-3.3059,-3.3096,-3.3163,-3.3178,-3.3203,-3.3212,-3.3201,-3.3198,-3.3225,-3.3224,-3.3229,-3.3228,-3.3228,-3.3227,0,-3.2329,-3.2431,-3.2499,-3.2531,-3.2624,-3.2654,-3.2694,-3.2757,-3.2798,-3.2858,-3.2885,-3.295,-3.2986,-3.3036,-3.3084,-3.3074,-3.3166,-3.3162,-3.3191,-3.319,-3.321,-3.3208,-3.326,-3.3227,-3.3227,-3.3227,-3.3227,0,-3.2332,-3.2393,-3.2481,-3.256,-3.2584,-3.2627,-3.2697,-3.2746,-3.281,-3.2837,-3.2884,-3.2914,-3.2975,-3.2969,-3.3054,-3.3028,-3.3062,-3.309,-3.3093,-3.3104,-3.3095,-3.3121,-3.3163,-3.3171,-3.3111,-3.311,-3.3109,0,-3.2275,-3.2378,-3.2424,-3.2505,-3.256,-3.2599,-3.2648,-3.2703,-3.2743,-3.2795,-3.2839,-3.2897,-3.2903,-3.2928,-3.2963,-3.301,-3.3043,-3.3007,-3.3083,-3.3085,-3.3068,-3.3107,-3.3101,-3.3148,-3.3097,-3.3099,-3.31,0,-3.2237,-3.2349,-3.236,-3.24,-3.2482,-3.2527,-3.2582,-3.2652,-3.2684,-3.2741,-3.279,-3.2871,-3.288,-3.2921,-3.2952,-3.2986,-3.3022,-3.299,-3.2993,-3.2997,-3.3095,-3.309,-3.3097,-3.3036,-3.3037,-3.3038,-3.309,0,-3.2235,-3.2292,-3.2324,-3.2407,-3.245,-3.2503,-3.2559,-3.2597,-3.2624,-3.2664,-3.2735,-3.2792,-3.2862,-3.2882,-3.2907,-3.2967,-3.2966,-3.2973,-3.2972,-3.2996,-3.3015,-3.3022,-3.294,-3.2941,-3.2941,-3.2941,0,0,-3.2168,-3.2251,-3.2299,-3.2354,-3.2394,-3.2432,-3.2484,-3.2527,-3.2611,-3.2637,-3.2637,-3.276,-3.2806,-3.2886,-3.2898,-3.2924,-3.2941,-3.293,-3.2984,-3.2988,-3.2993,-3.3011,-3.3018,-3.2941,-3.2941,-3.2941,-3.2942,0,-3.2179,-3.2226,-3.2276,-3.2323,-3.2393,-3.2434,-3.2446,-3.2522,-3.255,-3.2619,-3.2649,-3.2698,-3.2793,-3.2839,-3.2875,-3.2921,-3.2942,-3.2937,-3.2945,-3.2984,-3.2988,-3.2992,-3.3011,-3.3017,-3.2942,-3.2942,-3.2942,0,-3.2154,-3.221,-3.224,-3.233,-3.2376,-3.243,-3.2443,-3.2498,-3.2539,-3.2577,-3.2645,-3.2684,-3.2749,-3.2816,-3.2848,-3.2849,-3.294,-3.2919,-3.2919,-3.2925,-3.2965,-3.297,-3.2974,-3.2916,-3.2916,-3.2916,0,0,-3.2156,-3.2208,-3.2285,-3.2337,-3.2364,-3.2424,-3.2458,-3.2488,-3.2546,-3.2569,-3.262,-3.2675,-3.2732,-3.2768,-3.2823,-3.2888,-3.2907,-3.2914,-3.2915,-3.2916,-3.2921,-3.2962,-3.2967,-3.2915,-3.2915,-3.2915,0,0,-3.2156,-3.2248,-3.2264,-3.2331,-3.2386,-3.2465,-3.2494,-3.2516,-3.2572,-3.2572,-3.2624,-3.2641,-3.2704,-3.2741,-3.2719,-3.2824,-3.2821,-3.2827,-3.2798,-3.28,-3.2802,-3.2792,-3.274,0,0,0,0,0,-3.2197,-3.2237,-3.2251,-3.227,-3.2383,-3.2457,-3.2472,-3.2516,-3.2514,-3.2537,-3.2583,-3.2602,-3.274,-3.2722,-3.2741,-3.2765,-3.29,-3.2902,-3.2905,-3.2882,-3.2884,-3.2886,0,0,0,0,0,0,-3.2205,-3.2229,-3.225,-3.2329,-3.2355,-3.2456,-3.2463,-3.2476,-3.2513,-3.2516,-3.2592,-3.2604,-3.2643,-3.2716,-3.2732,-3.2754,-3.2735,-3.2901,-3.2903,-3.2905,-3.2883,-3.2885,-3.2886,0,0,0,0,0,-3.2211,-3.2231,-3.24,-3.2329,-3.2351,-3.242,-3.2461,-3.2473,-3.2502,-3.2573,-3.2586,-3.2532,-3.2642,-3.2659,-3.2726,-3.2746,-3.2724,-3.273,-3.2902,-3.2904,-3.2906,-3.2884,0,0,0,0,0,0,-3.2216,-3.2241,-3.2406,-3.2414,-3.2317,-3.2416,-3.2433,-3.247,-3.2558,-3.2571,-3.2515,-3.2516,-3.2643,-3.2655,-3.2668,-3.274,-3.2715,-3.2721,-3.2725,-3.2904,-3.2905,-3.2906,0,0,0,0,0,0,-3.2231,-3.2248,-3.241,-3.2392,-3.2399,-3.2411,-3.2426,-3.2488,-3.2558,-3.2495,-3.2499,-3.2515,-3.2624,-3.2653,-3.2663,-3.2758,-3.2709,-3.2714,-3.2718,-3.2721,-3.2905,-3.2906,0,0,0,0,0,0,-3.2239,-3.2254,-3.2391,-3.2396,-3.2402,-3.2501,-3.2467,-3.258,-3.2544,-3.2491,-3.2542,-3.2541,-3.2621,-3.2632,-3.2659,-3.275,-3.2756,-3.2709,-3.2713,-3.2715,-3.2717,0,0,0,0,0,0,0,-3.2246,-3.2138,-3.2355,-3.2399,-3.2404,-3.2493,-3.2495,-3.2497,-3.2544,-3.2543,-3.2542,-3.2541,-3.2677,-3.2683,-3.2689,-3.2744,0,0,-3.2708,-3.2711,0,0,0,0,0,0,0,0,-3.2133,-3.2136,-3.2355,-3.2357,-3.2359,-3.2493,-3.2495,-3.2497,-3.2544,-3.2543,-3.2542,-3.2542,-3.2679,-3.2684,-3.2689,0,0,0,0,0,0,0,0,0,0,0,0,0,0,0,-3.2356,-3.2357,0,-3.2493,-3.2495,-3.2496,-3.2544,-3.2543,-3.2543,-3.2542,-3.268,-3.2684,-3.2688,0,0,0,0,0,0,0,0,0,0,0,0,0,0,0,0,0,0,0,0,0,0,0,0,0,0,0,0,0,0,0,0,0,0,0,0,0,0,0,0,0,0,0,0,0,0,0,0,0,0,0,0,0,0,0,0,0,0,0,0,0,0,0,0,0,0,0,0,0]}]]]